Regional Weather Roundup
Issued by NWS Charleston, SC

Current Version | Previous Version | Graphics & Text | Print | Product List | Glossary On
Versions: 1 2 3 4 5 6 7 8 9 10 11 12 13 14 15 16 17 18 19 20 21 22 23 24 25 26 27 28 29 30 31 32 33 34 35 36 37 38 39 40 41 42 43 44 45 46 47 48 49 50
000
ASUS42 KCHS 261012
RWRCHS

REGIONAL WEATHER ROUNDUP
NATIONAL WEATHER SERVICE CHARLESTON SC
600 AM EDT SUN MAR 26 2017

NOTE: "FAIR" INDICATES FEW OR NO CLOUDS BELOW 12,000 FEET WITH NO
SIGNIFICANT WEATHER AND/OR OBSTRUCTIONS TO VISIBILITY.

NOT ALL STATIONS ARE QUALITY CONTROLLED. USE DATA WITH CAUTION...
ESPECIALLY DEWPOINT OBSERVATIONS.

SCZ027-030-031-034>040-042>050-261100-
...SOUTHEAST SOUTH CAROLINA...

CITY           SKY/WX    TMP DP  RH WIND       PRES   REMARKS
N CHARLESTON   PTCLDY    57  55  93 CALM      30.17S
WATERFRONT PRK   N/A     62  59  90 CALM      30.17R
JOHNS ISLAND   FAIR      57  55  94 CALM      30.17S
PINOPOLIS        N/A     57  57 100 CALM      30.08S
MONCKS CORNER  FAIR      52  50  93 CALM      30.17S
SUMMERVILLE    FAIR      50  50 100 CALM      30.18S
BEAUFORT MCAS  PTCLDY    55  55 100 CALM      30.16S FOG
BEAUFORT ARPT  FAIR      55  55 100 CALM      30.16S
HILTON HEAD IS NOT AVBL
WALTERBORO       N/A     50  50 100 CALM      30.17S FOG
ALLENDALE      FAIR      55  54  94 CALM      30.14S

...SOUTHERN MIDLANDS AND PEE DEE...

CITY           SKY/WX    TMP DP  RH WIND       PRES   REMARKS
GEORGETOWN     FAIR      52  50  93 CALM      30.19R
KINGSTREE      FAIR      50  48  93 CALM      30.19R
ORANGEBURG     MOCLDY    52  51  97 E5        30.16F
BARNWELL       FAIR      55  55 100 CALM      30.15R
AIKEN          FAIR      54  52  94 SE5       30.18R
MANNING        FAIR      52  50  93 CALM      30.18R
COLUMBIA       MOCLDY    57  53  86 E3        30.15S
SUMTER         PTCLDY    54  52  92 CALM      30.15S
FLORENCE       CLOUDY    55  54  96 E5        30.19R
MYRTLE BEACH   CLEAR     59  57  94 CALM      30.20S
N MYRTLE BEACH MOCLDY    58  57  97 CALM      30.19S

$$

GAZ063-065-086>088-099>101-113>116-118-119-134>141-150-261100-
...SOUTHEAST GEORGIA...

CITY           SKY/WX    TMP DP  RH WIND       PRES   REMARKS
SAVANNAH ARPT  PTCLDY    58  54  86 SE3       30.15F
HUNTER AAF     PTCLDY    58  58 100 E3        30.13S
FORT STEWART   PTCLDY    55  54  94 CALM      30.12F
STATESBORO     PTCLDY    56  56 100 CALM      30.14S
SYLVANIA       MOSUNNY  N/A N/A N/A CALM      30.15S
CLAXTON        PTSUNNY  N/A N/A N/A CALM      30.14S

...CSRA...CENTRAL AND FAR SOUTHEAST GEORGIA...

CITY           SKY/WX    TMP DP  RH WIND       PRES   REMARKS
THOMSON        MOCLDY    60  55  83 SW6       30.17S
AUGUSTA-BUSH   CLOUDY    57  55  93 CALM      30.13S
AUGUSTA-DANIEL CLOUDY    59  53  80 SE5       30.14S
SWAINSBORO     CLOUDY    61  59  94 CALM      30.15R
VIDALIA        MOCLDY    63  59  88 S3        30.14R
EASTMAN        FAIR      61  59  93 CALM      30.15R
HAZLEHURST     FAIR      62  62 100 SE5       30.12S
ALMA           CLOUDY    58  58 100 CALM      30.13R
WAYCROSS       CLOUDY    61  61 100 CALM      30.13R
JESUP          FAIR      55  54  94 CALM      30.14S
BAXLEY         FAIR      59  59 100 CALM      30.13S
BRUNSWICK      CLEAR     55  55 100 CALM      30.15S
SAINT SIMONS   CLEAR     60  58  92 CALM      30.14S

$$

SCZ027-028-034-036>038-045-046-048>050-GAZ119-141-261100-
...LAKE AND SUPPLEMENTAL COASTAL OBSERVATIONS...

STATION/POSITION TIME  TEMP    WIND        PRES    WAVE   SWELL
                       AIR SEA DIR/SP/G            HT/PER HT/PER/DIR
                 (UTC) (F)     (DEG/KT/KT) (MB)    (FT/S) (FT/S/D)
WINYAH BAY       0845   59     290/  1     1022.0
LAKE MURRAY      0920   60     100/  3/  5 1020.3
ACE BASIN NERRS  0845   57        CALM     1021.0
FORT PULASKI     0948   64 62  140/  4/  6 1021.2F
SAPELO ISLAND    0900   61        CALM     1021.0

$$

ANZ835-935-AMZ111-154-330-350-352-354-370-450-454-472-261100-
...C-MAN AND BUOY OBSERVATIONS...

STATION/POSITION TIME  TEMP    WIND        PRES    WAVE   SWELL
                       AIR SEA DIR/SP/G            HT/PER HT/PER/DIR
                 (UTC) (F)     (DEG/KT/KT) (MB)    (FT/S) (FT/S/D)
BUOY 41004       0850   71 72  140/ 16/ 17 1021.1    4/ 8   3/140/ 8
BUOY 41008       0850   64 62   70/  4/  4 1020.7    4/ 8   3/110/ 8
FOLLY BEACH CMAN 0900   63     140/  5/  5 1021.9F
CAPERS NEARSHORE 0908   63     140/  8/ 10 1021.1F
FRIPP NEARSHORE  0908   62 60  120/  2/  6 1021.0S


STATION/POSITION TIME  TEMP    WIND        PRES    WAVE   SWELL
                       AIR SEA DIR/SP/G            HT/PER HT/PER/DIR
                 (UTC) (F)     (DEG/KT/KT) (MB)    (FT/S) (FT/S/D)
5E ST. MARYS GA  0930      64                N/A     4/ 8
FRYING PAN BUOY  0950   71 75  170/ 10/ 14 1022.6R   4/ 8   3/150/ 8
BUOY 41025       0950   68 75  180/ 12/ 16 1024.0R   3/ 5   2/130/ 8
CAPE LOOKOUT NC  0900   66     200/  6/  7 1023.1R
BUOY 41002       0950   67 72  110/ 12/ 16 1023.7R   5/ 9   5/130/ 9
BUOY 41010       NOT AVBL
ST AUGUSTINE FL  1000   64 67   CALM  /  1 1021.3R


$$



USA.gov is the U.S. government's official web portal to all federal, state and local government web resources and services.